| time (UTC) | temp F | wind direction | speed MPH | gust MPH | rain 1hr in | rain 24hr in | rain mn in | humidity % | barometer mb |
| 20260502194050 | 60 | 323 | 7.0 | 14.0 | 0.00 | 1.67 | 1.65 | 93 | 1011.8 |
| 20260502193549 | 60 | 4 | 8.0 | 14.0 | 0.00 | 1.67 | 1.65 | 93 | 1011.6 |
| 20260502193050 | 60 | 318 | 6.0 | 13.0 | 0.00 | 1.67 | 1.65 | 94 | 1011.4 |
| 20260502192604 | 60 | 314 | 5.0 | 13.0 | 0.00 | 1.67 | 1.65 | 94 | 1011.5 |
| 20260502192049 | 60 | 351 | 5.0 | 10.0 | 0.00 | 1.67 | 1.65 | 94 | 1011.5 |
| 20260502191551 | 60 | 342 | 5.0 | 12.0 | 0.00 | 1.67 | 1.65 | 94 | 1011.4 |
| 20260502191045 | 60 | 295 | 5.0 | 12.0 | 0.00 | 1.67 | 1.65 | 95 | 1011.4 |
| 20260502190542 | 60 | 334 | 4.0 | 9.0 | 0.00 | 1.67 | 1.65 | 95 | 1011.3 |
| 20260502190045 | 60 | 329 | 4.0 | 9.0 | 0.00 | 1.67 | 1.65 | 94 | 1011.5 |
| 20260502185039 | 60 | 323 | 5.0 | 10.0 | 0.01 | 1.67 | 1.65 | 95 | 1011.8 |
| 20260502184540 | 60 | 342 | 5.0 | 10.0 | 0.02 | 1.67 | 1.65 | 95 | 1011.8 |
| 20260502183538 | 60 | 316 | 5.0 | 12.0 | 0.02 | 1.67 | 1.65 | 95 | 1011.7 |
| 20260502182539 | 60 | 317 | 4.0 | 10.0 | 0.02 | 1.67 | 1.65 | 95 | 1011.8 |
| 20260502181542 | 60 | 342 | 5.0 | 9.0 | 0.02 | 1.67 | 1.65 | 95 | 1011.7 |
| 20260502181039 | 60 | 330 | 5.0 | 10.0 | 0.02 | 1.67 | 1.65 | 95 | 1011.7 |
| 20260502170519 | 59 | 11 | 4.0 | 9.0 | 0.00 | 1.64 | 1.62 | 96 | 1011.9 |
| 20260502163009 | 59 | 351 | 5.0 | 12.0 | 0.00 | 1.64 | 1.62 | 96 | 1011.3 |
| 20260502162510 | 59 | 11 | 5.0 | 12.0 | 0.01 | 1.64 | 1.62 | 96 | 1011.0 |
| 20260502162009 | 59 | 8 | 4.0 | 9.0 | 0.01 | 1.64 | 1.62 | 96 | 1011.1 |
| 20260502161509 | 59 | 16 | 4.0 | 10.0 | 0.03 | 1.64 | 1.62 | 96 | 1011.4 |
| 20260502161026 | 59 | 351 | 5.0 | 9.0 | 0.05 | 1.64 | 1.62 | 96 | 1011.2 |
| 20260502160515 | 59 | 351 | 4.0 | 9.0 | 0.05 | 1.64 | 1.62 | 96 | 1011.1 |
| 20260502152014 | 58 | 304 | 3.0 | 8.0 | 0.07 | 1.58 | 1.61 | 96 | 1012.4 |
| 20260502151505 | 58 | 322 | 4.0 | 8.0 | 0.05 | 1.58 | 1.59 | 96 | 1012.3 |
| 20260502151005 | 58 | 297 | 4.0 | 8.0 | 0.03 | 1.59 | 1.57 | 96 | 1012.4 |
| 20260502150511 | 58 | 346 | 3.0 | 6.0 | 0.04 | 1.59 | 1.57 | 96 | 1011.7 |
| 20260502130456 | 58 | 27 | 4.0 | 10.0 | 0.11 | 1.46 | 1.43 | 96 | 1011.8 |
| 20260502123450 | 58 | 339 | 2.0 | 7.0 | 0.12 | 1.35 | 1.37 | 95 | 1012.1 |
| 20260502122951 | 58 | 328 | 3.0 | 7.0 | 0.12 | 1.35 | 1.36 | 95 | 1012.1 |
| 20260502122451 | 59 | 317 | 3.0 | 5.0 | 0.12 | 1.35 | 1.35 | 95 | 1012.3 |
| 20260502121952 | 59 | 307 | 1.0 | 4.0 | 0.11 | 1.35 | 1.33 | 96 | 1012.1 |
| 20260502120952 | 59 | 319 | 2.0 | 3.0 | 0.14 | 1.35 | 1.32 | 95 | 1011.6 |
| 20260502120452 | 59 | 319 | 2.0 | 3.0 | 0.17 | 1.35 | 1.32 | 95 | 1011.5 |
| 20260502115456 | 59 | 319 | 1.0 | 4.0 | 0.22 | 1.15 | 1.30 | 95 | 1011.3 |
| 20260502114952 | 59 | 319 | 1.0 | 3.0 | 0.24 | 1.15 | 1.29 | 95 | 1011.3 |
| 20260502114453 | 59 | 319 | 1.0 | 3.0 | 0.26 | 1.15 | 1.29 | 95 | 1011.3 |
| 20260502113951 | 59 | 319 | 1.0 | 2.0 | 0.28 | 1.15 | 1.28 | 95 | 1011.1 |
| 20260502113445 | 59 | 319 | 0.0 | 2.0 | 0.29 | 1.15 | 1.26 | 95 | 1011.1 |
| 20260502112439 | 59 | 319 | 1.0 | 2.0 | 0.30 | 1.26 | 1.23 | 95 | 1011.1 |
| 20260502111936 | 59 | 319 | 1.0 | 3.0 | 0.32 | 1.25 | 1.21 | 95 | 1011.2 |
| 20260502111443 | 59 | 319 | 2.0 | 4.0 | 0.33 | 1.22 | 1.19 | 95 | 1011.3 |
| 20260502110940 | 59 | 320 | 2.0 | 4.0 | 0.34 | 1.21 | 1.17 | 95 | 1011.4 |
| 20260502105937 | 59 | 338 | 2.0 | 4.0 | 0.38 | 1.15 | 1.11 | 95 | 1011.3 |
| 20260502105434 | 59 | 338 | 1.0 | 4.0 | 0.36 | 1.12 | 1.08 | 95 | 1011.2 |
| 20260502104433 | 59 | 339 | 0.0 | 2.0 | 0.33 | 1.05 | 1.02 | 95 | 1011.0 |
| 20260502103431 | 59 | 339 | 1.0 | 3.0 | 0.31 | 1.00 | 0.97 | 95 | 1010.9 |
| 20260502102934 | 59 | 337 | 2.0 | 5.0 | 0.30 | 0.98 | 0.94 | 95 | 1010.9 |
| 20260502102433 | 58 | 337 | 3.0 | 6.0 | 0.28 | 0.95 | 0.92 | 95 | 1010.9 |
| 20260502091428 | 58 | 0 | 4.0 | 10.0 | 0.25 | 0.66 | 0.63 | 95 | 1010.1 |
| 20260502090926 | 58 | 10 | 4.0 | 10.0 | 0.27 | 0.65 | 0.62 | 95 | 1009.9 |
| 20260502090427 | 58 | 4 | 5.0 | 10.0 | 0.29 | 0.64 | 0.60 | 95 | 1010.5 |
| 20260502071401 | 60 | 7 | 3.0 | 5.0 | 0.09 | 0.21 | 0.17 | 94 | 1011.8 |
| 20260502070902 | 60 | 6 | 3.0 | 6.0 | 0.08 | 0.20 | 0.17 | 93 | 1012.0 |
| 20260502070401 | 60 | 10 | 3.0 | 8.0 | 0.08 | 0.19 | 0.16 | 93 | 1012.1 |
| 20260502065905 | 60 | 302 | 5.0 | 9.0 | 0.07 | 0.18 | 0.15 | 93 | 1012.6 |
| 20260502064904 | 60 | 339 | 4.0 | 11.0 | 0.08 | 0.15 | 0.12 | 93 | 1012.3 |
| 20260502064404 | 60 | 295 | 6.0 | 16.0 | 0.06 | 0.13 | 0.09 | 93 | 1012.7 |
| 20260502063901 | 61 | 297 | 5.0 | 16.0 | 0.05 | 0.12 | 0.09 | 93 | 1012.4 |
| 20260502063401 | 61 | 285 | 4.0 | 11.0 | 0.05 | 0.12 | 0.09 | 93 | 1012.4 |
| 20260502062900 | 61 | 346 | 3.0 | 8.0 | 0.05 | 0.12 | 0.09 | 93 | 1012.5 |
| 20260502062358 | 61 | 315 | 3.0 | 6.0 | 0.05 | 0.12 | 0.09 | 93 | 1012.4 |
| 20260502061858 | 61 | 351 | 3.0 | 7.0 | 0.06 | 0.12 | 0.09 | 93 | 1012.4 |
| 20260502061400 | 61 | 341 | 3.0 | 7.0 | 0.07 | 0.12 | 0.09 | 93 | 1012.5 |
| 20260502060856 | 61 | 329 | 3.0 | 5.0 | 0.08 | 0.12 | 0.08 | 93 | 1012.8 |
| 20260502060356 | 61 | 1 | 3.0 | 5.0 | 0.07 | 0.11 | 0.08 | 92 | 1013.0 |
| 20260502055854 | 61 | 268 | 3.0 | 4.0 | 0.07 | 0.11 | 0.07 | 92 | 1013.2 |
| 20260502055354 | 61 | 268 | 3.0 | 4.0 | 0.06 | 0.09 | 0.06 | 92 | 1013.3 |
| 20260502054854 | 61 | 304 | 2.0 | 6.0 | 0.04 | 0.07 | 0.04 | 92 | 1012.9 |
| 20260502054355 | 61 | 304 | 3.0 | 8.0 | 0.04 | 0.07 | 0.04 | 92 | 1012.6 |
| 20260502053855 | 61 | 341 | 3.0 | 8.0 | 0.04 | 0.07 | 0.04 | 91 | 1012.5 |
| 20260502053355 | 61 | 333 | 3.0 | 6.0 | 0.04 | 0.07 | 0.04 | 91 | 1012.5 |
| 20260502052854 | 61 | 342 | 3.0 | 6.0 | 0.04 | 0.07 | 0.04 | 91 | 1012.5 |
| 20260502052353 | 62 | 356 | 3.0 | 6.0 | 0.04 | 0.07 | 0.04 | 90 | 1012.5 |
| 20260502051854 | 62 | 312 | 3.0 | 7.0 | 0.03 | 0.06 | 0.03 | 90 | 1012.7 |
| 20260502051351 | 62 | 286 | 3.0 | 7.0 | 0.02 | 0.05 | 0.02 | 90 | 1013.0 |
| 20260502045850 | 62 | 308 | 4.0 | 8.0 | 0.01 | 0.04 | 0.01 | 89 | 1012.8 |
| 20260502045353 | 62 | 310 | 4.0 | 8.0 | 0.00 | 0.03 | 0.00 | 89 | 1012.7 |
| 20260502044851 | 62 | 295 | 3.0 | 8.0 | 0.00 | 0.03 | 0.00 | 90 | 1012.8 |
| 20260502044348 | 62 | 308 | 2.0 | 5.0 | 0.00 | 0.03 | 0.00 | 90 | 1012.6 |
| 20260502043848 | 62 | 305 | 2.0 | 5.0 | 0.00 | 0.03 | 0.00 | 90 | 1012.7 |
| 20260502043346 | 62 | 296 | 2.0 | 4.0 | 0.00 | 0.03 | 0.00 | 90 | 1012.9 |
| 20260502042848 | 62 | 296 | 2.0 | 4.0 | 0.00 | 0.03 | 0.00 | 90 | 1012.8 |
| 20260502042348 | 62 | 320 | 2.0 | 4.0 | 0.00 | 0.03 | 0.00 | 90 | 1012.7 |
| 20260502041844 | 62 | 322 | 2.0 | 4.0 | 0.00 | 0.03 | 0.00 | 90 | 1012.5 |
| 20260502041344 | 62 | 305 | 1.0 | 3.0 | 0.00 | 0.03 | 0.00 | 91 | 1012.5 |
| 20260502040844 | 62 | 305 | 1.0 | 3.0 | 0.00 | 0.03 | 0.00 | 91 | 1012.7 |
| 20260502035842 | 62 | 305 | 0.0 | 2.0 | 0.00 | 0.03 | 0.03 | 91 | 1013.0 |
| 20260502035340 | 62 | 305 | 1.0 | 2.0 | 0.00 | 0.03 | 0.03 | 91 | 1013.0 |
| 20260502034338 | 62 | 305 | 0.0 | 2.0 | 0.00 | 0.03 | 0.03 | 90 | 1012.7 |
| 20260502033837 | 62 | 305 | 0.0 | 2.0 | 0.00 | 0.03 | 0.03 | 90 | 1012.6 |
| 20260502033337 | 62 | 305 | 0.0 | 2.0 | 0.00 | 0.03 | 0.03 | 90 | 1012.5 |
| 20260502032334 | 62 | 305 | 0.0 | 0.0 | 0.00 | 0.03 | 0.03 | 90 | 1012.7 |
| 20260502031335 | 62 | 305 | 0.0 | 0.0 | 0.01 | 0.03 | 0.03 | 89 | 1012.6 |
| 20260502030830 | 62 | 305 | 0.0 | 0.0 | 0.01 | 0.03 | 0.03 | 89 | 1012.5 |
| 20260502030331 | 63 | 305 | 0.0 | 0.0 | 0.01 | 0.03 | 0.03 | 88 | 1012.4 |
| 20260502025831 | 63 | 305 | 0.0 | 0.0 | 0.01 | 0.03 | 0.03 | 88 | 1012.4 |
| 20260502025328 | 63 | 305 | 0.0 | 0.0 | 0.01 | 0.03 | 0.03 | 88 | 1012.5 |
| 20260502024830 | 63 | 305 | 0.0 | 0.0 | 0.01 | 0.03 | 0.03 | 88 | 1012.7 |
| 20260502024329 | 63 | 305 | 0.0 | 0.0 | 0.01 | 0.03 | 0.03 | 87 | 1012.6 |
| 20260502023828 | 63 | 305 | 0.0 | 0.0 | 0.01 | 0.03 | 0.03 | 87 | 1012.6 |
| 20260502023325 | 63 | 305 | 1.0 | 2.0 | 0.01 | 0.03 | 0.03 | 87 | 1012.7 |
| 20260502022824 | 63 | 305 | 1.0 | 2.0 | 0.01 | 0.03 | 0.03 | 87 | 1012.8 |
| 20260502022326 | 63 | 305 | 1.0 | 3.0 | 0.01 | 0.03 | 0.03 | 86 | 1012.7 |
| 20260502021322 | 63 | 305 | 0.0 | 0.0 | 0.00 | 0.02 | 0.02 | 85 | 1012.4 |
| 20260502020823 | 63 | 305 | 0.0 | 0.0 | 0.00 | 0.02 | 0.02 | 85 | 1012.2 |
| 20260502020321 | 63 | 305 | 0.0 | 3.0 | 0.00 | 0.02 | 0.02 | 85 | 1012.1 |
| 20260502015825 | 63 | 305 | 1.0 | 4.0 | 0.00 | 0.02 | 0.02 | 86 | 1012.1 |
| 20260502015319 | 63 | 306 | 1.0 | 4.0 | 0.00 | 0.02 | 0.02 | 87 | 1012.0 |
| 20260502014809 | 63 | 258 | 1.0 | 3.0 | 0.00 | 0.02 | 0.02 | 87 | 1012.0 |
| 20260502014309 | 63 | 256 | 0.0 | 2.0 | 0.00 | 0.02 | 0.02 | 88 | 1012.0 |
| 20260502013814 | 63 | 256 | 0.0 | 2.0 | 0.00 | 0.02 | 0.02 | 88 | 1012.1 |
| 20260502013316 | 63 | 256 | 0.0 | 2.0 | 0.00 | 0.02 | 0.02 | 88 | 1012.2 |
| 20260502012812 | 63 | 256 | 0.0 | 0.0 | 0.00 | 0.02 | 0.02 | 88 | 1012.2 |
| 20260502012311 | 63 | 256 | 0.0 | 0.0 | 0.00 | 0.02 | 0.02 | 88 | 1012.2 |
| 20260502011812 | 63 | 256 | 0.0 | 0.0 | 0.00 | 0.02 | 0.02 | 88 | 1012.3 |
| 20260502010803 | 63 | 256 | 0.0 | 0.0 | 0.00 | 0.02 | 0.02 | 87 | 1012.5 |
| 20260502010304 | 64 | 256 | 0.0 | 0.0 | 0.00 | 0.02 | 0.02 | 86 | 1012.5 |
| 20260502005803 | 64 | 256 | 0.0 | 0.0 | 0.00 | 0.02 | 0.02 | 86 | 1012.6 |
| 20260502005306 | 64 | 256 | 0.0 | 0.0 | 0.00 | 0.02 | 0.02 | 85 | 1012.6 |
| 20260502004803 | 64 | 256 | 0.0 | 0.0 | 0.00 | 0.02 | 0.02 | 85 | 1012.5 |
| 20260502004304 | 64 | 256 | 0.0 | 0.0 | 0.00 | 0.02 | 0.02 | 84 | 1012.5 |
| 20260502003759 | 65 | 256 | 0.0 | 1.0 | 0.00 | 0.02 | 0.02 | 83 | 1012.7 |
| 20260502003252 | 65 | 256 | 0.0 | 1.0 | 0.00 | 0.02 | 0.02 | 82 | 1012.7 |
| 20260502002743 | 65 | 256 | 0.0 | 1.0 | 0.00 | 0.02 | 0.02 | 81 | 1012.7 |
| 20260502002243 | 65 | 256 | 1.0 | 3.0 | 0.00 | 0.02 | 0.02 | 80 | 1012.6 |
| 20260502001742 | 65 | 256 | 1.0 | 3.0 | 0.00 | 0.02 | 0.02 | 80 | 1012.7 |
| 20260502001238 | 66 | 256 | 1.0 | 3.0 | 0.00 | 0.02 | 0.02 | 79 | 1012.7 |
| 20260502000235 | 66 | 256 | 2.0 | 4.0 | 0.00 | 0.02 | 0.02 | 78 | 1012.8 |
| 20260501235732 | 66 | 256 | 2.0 | 4.0 | 0.00 | 0.02 | 0.02 | 78 | 1012.7 |
| 20260501235231 | 66 | 223 | 2.0 | 3.0 | 0.00 | 0.02 | 0.02 | 78 | 1012.7 |
| 20260501234732 | 66 | 221 | 1.0 | 3.0 | 0.00 | 0.02 | 0.02 | 77 | 1012.5 |
| 20260501233740 | 67 | 220 | 1.0 | 4.0 | 0.00 | 0.02 | 0.02 | 76 | 1012.4 |
| 20260501233237 | 67 | 220 | 2.0 | 4.0 | 0.00 | 0.02 | 0.02 | 76 | 1012.3 |
| 20260501232732 | 67 | 198 | 1.0 | 2.0 | 0.00 | 0.02 | 0.02 | 75 | 1012.2 |
| 20260501232231 | 67 | 198 | 1.0 | 2.0 | 0.00 | 0.02 | 0.02 | 75 | 1012.1 |
| 20260501231730 | 67 | 198 | 1.0 | 3.0 | 0.00 | 0.02 | 0.02 | 76 | 1012.0 |
| 20260501225719 | 67 | 279 | 2.0 | 5.0 | 0.00 | 0.02 | 0.02 | 75 | 1011.7 |
| 20260501224722 | 67 | 271 | 1.0 | 3.0 | 0.00 | 0.02 | 0.02 | 75 | 1011.7 |
| 20260501224220 | 67 | 271 | 2.0 | 4.0 | 0.00 | 0.02 | 0.02 | 75 | 1011.8 |
| 20260501223719 | 67 | 272 | 1.0 | 4.0 | 0.00 | 0.02 | 0.02 | 74 | 1011.8 |
| 20260501223222 | 68 | 272 | 1.0 | 3.0 | 0.00 | 0.02 | 0.02 | 76 | 1011.7 |
| 20260501222721 | 67 | 272 | 1.0 | 3.0 | 0.00 | 0.02 | 0.02 | 75 | 1011.6 |
| 20260501222219 | 67 | 272 | 2.0 | 3.0 | 0.00 | 0.02 | 0.02 | 76 | 1011.7 |
| 20260501221720 | 67 | 272 | 2.0 | 3.0 | 0.00 | 0.02 | 0.02 | 76 | 1011.8 |
| 20260501221220 | 67 | 272 | 1.0 | 2.0 | 0.00 | 0.02 | 0.02 | 77 | 1011.7 |
| 20260501220723 | 67 | 272 | 1.0 | 2.0 | 0.00 | 0.02 | 0.02 | 77 | 1011.7 |
| 20260501215217 | 67 | 272 | 2.0 | 4.0 | 0.00 | 0.02 | 0.02 | 78 | 1012.0 |
| 20260501214221 | 67 | 272 | 2.0 | 4.0 | 0.00 | 0.02 | 0.02 | 78 | 1012.0 |
| 20260501213721 | 67 | 272 | 2.0 | 7.0 | 0.00 | 0.02 | 0.02 | 79 | 1012.1 |
| 20260501213220 | 67 | 272 | 4.0 | 9.0 | 0.00 | 0.02 | 0.02 | 79 | 1012.3 |
| 20260501212715 | 66 | 271 | 3.0 | 9.0 | 0.00 | 0.02 | 0.02 | 79 | 1012.6 |
| 20260501212234 | 66 | 273 | 3.0 | 11.0 | 0.00 | 0.02 | 0.02 | 80 | 1012.4 |
| 20260501211713 | 66 | 276 | 5.0 | 11.0 | 0.00 | 0.02 | 0.02 | 80 | 1012.8 |
| 20260501211214 | 66 | 264 | 5.0 | 11.0 | 0.00 | 0.02 | 0.02 | 80 | 1013.0 |
| 20260501210712 | 66 | 263 | 4.0 | 11.0 | 0.00 | 0.02 | 0.02 | 81 | 1013.2 |
| 20260501210210 | 66 | 261 | 3.0 | 7.0 | 0.00 | 0.02 | 0.02 | 83 | 1013.1 |
| 20260501205710 | 66 | 231 | 3.0 | 8.0 | 0.00 | 0.02 | 0.02 | 82 | 1012.8 |
| 20260501205211 | 66 | 234 | 3.0 | 8.0 | 0.00 | 0.02 | 0.02 | 81 | 1012.5 |
| 20260501204716 | 66 | 239 | 3.0 | 8.0 | 0.01 | 0.02 | 0.02 | 81 | 1012.5 |
| 20260501204211 | 66 | 258 | 3.0 | 8.0 | 0.01 | 0.02 | 0.02 | 81 | 1012.5 |
| 20260501203709 | 67 | 276 | 5.0 | 8.0 | 0.01 | 0.02 | 0.02 | 82 | 1012.6 |
| 20260501203210 | 67 | 258 | 5.0 | 8.0 | 0.01 | 0.02 | 0.02 | 81 | 1012.8 |
| 20260501202709 | 67 | 261 | 4.0 | 8.0 | 0.01 | 0.02 | 0.02 | 80 | 1012.9 |
| 20260501202211 | 67 | 276 | 3.0 | 7.0 | 0.01 | 0.02 | 0.02 | 80 | 1012.7 |
| 20260501201710 | 67 | 269 | 3.0 | 6.0 | 0.01 | 0.02 | 0.02 | 79 | 1012.6 |
| 20260501201211 | 67 | 269 | 2.0 | 6.0 | 0.01 | 0.02 | 0.02 | 79 | 1012.5 |
| 20260501200709 | 68 | 222 | 1.0 | 3.0 | 0.01 | 0.02 | 0.02 | 79 | 1012.3 |
| 20260501200220 | 68 | 222 | 2.0 | 4.0 | 0.01 | 0.02 | 0.02 | 77 | 1012.2 |
| 20260501195709 | 68 | 222 | 2.0 | 4.0 | 0.01 | 0.02 | 0.02 | 75 | 1012.4 |
| 20260501195210 | 69 | 222 | 2.0 | 4.0 | 0.01 | 0.02 | 0.01 | 73 | 1012.5 |